Weather History for Los Angeles Downtown, CA

Change the Weather History Date:

Wednesday, January 29, 2014

  Actual Average Record
Temperature  
Mean Temperature 61 °F 58 °F  
Max Temperature 70 °F 68 °F 88 °F (1971)
Min Temperature 52 °F 48 °F 30 °F (1880)
Degree Days  
Heating Degree Days 4 7  
Month to date heating degree days 82 209  
Since 1 July heating degree days 362 574  
Cooling Degree Days 0 0  
Month to date cooling degree days 17 0  
Year to date cooling degree days 17 0  
Growing Degree Days 10 (Base 50)    
Moisture  
Dew Point 53 °F    
Average Humidity 77    
Maximum Humidity 100    
Minimum Humidity 53    
Precipitation  
Precipitation 0.00 in 0.10 in 1.96 in (1922)
Month to date precipitation T 2.90  
Year to date precipitation T 2.90  
Since 1 July precipitation 0.97 7.22  
Sea Level Pressure  
Sea Level Pressure 30.02 in    
Wind  
Wind Speed 0 mph (West)    
Max Wind Speed 6 mph    
Max Gust Speed 9 mph    
Visibility 2 miles    
Events Fog    
T = Trace of Precipitation, MM = Missing Value Source: NWS Daily Summary

Daily Weather History Graph

Daily Weather History Graph

Search for Another Location

Airport:

Trip Planner

Search our weather history database for the weather conditions in past years. The results will help you decide how hot, cold, wet, or windy it might be!

Date:

Astronomy

Jan. 29, 2014 Rise Set
Actual Time 6:52 AM PST 5:20 PM PST
Civil Twilight 6:25 AM PST 5:47 PM PST
Nautical Twilight 5:55 AM PST 6:17 PM PST
Astronomical Twilight 5:26 AM PST 6:46 PM PST
Moon 5:32 AM PST (1/29) 4:25 PM PST (1/29)
Length of Visible Light 11h 21m
Length of Day
10h 28m
Waning Crescent, 2% of the Moon is Illuminated
Jan 29
Waning Crescent
Jan 30
New
Feb 6
First Quarter
Feb 14
Full
Feb 22
Last Quarter

Hourly Weather History & Observations

Time (PST) Temp. Dew Point Humidity Pressure Visibility Wind Dir Wind Speed Gust Speed Precip Events Conditions
12:47 AM 54.0 °F 51.1 °F 90% 30.09 in 5.0 mi Calm Calm - N/A   Clear
1:47 AM 54.0 °F 52.0 °F 93% 30.07 in 4.0 mi Calm Calm - N/A   Clear
2:47 AM 54.0 °F 51.1 °F 90% 30.06 in 4.0 mi Calm Calm - N/A   Clear
3:20 AM 51.8 °F 50.0 °F 94% 30.06 in 4.0 mi Calm Calm - N/A   Partly Cloudy
3:28 AM 51.8 °F 50.0 °F 94% 30.06 in 1.8 mi Calm Calm - N/A   Mostly Cloudy
3:34 AM 51.8 °F 50.0 °F 94% 30.06 in 0.8 mi Calm Calm - N/A   Mist
3:40 AM 51.8 °F 50.0 °F 94% 30.06 in 1.2 mi Calm Calm - N/A   Mostly Cloudy
3:47 AM 52.0 °F 50.0 °F 93% 30.06 in 1.8 mi Calm Calm - N/A   Overcast
3:53 AM 51.8 °F 50.0 °F 94% 30.06 in 0.5 mi Calm Calm - N/A Fog Fog
4:47 AM 53.1 °F 51.1 °F 93% 30.06 in 0.2 mi Calm Calm - N/A Fog Fog
5:47 AM 53.1 °F 52.0 °F 96% 30.06 in 0.2 mi Calm Calm - N/A Fog Fog
6:47 AM 53.1 °F 52.0 °F 96% 30.06 in 0.2 mi Calm Calm - N/A Fog Fog
7:47 AM 54.0 °F 53.1 °F 97% 30.07 in 0.2 mi Calm Calm - N/A Fog Fog
8:39 AM 55.4 °F 53.6 °F 94% 30.08 in 1.0 mi Calm Calm - N/A   Overcast
8:47 AM 55.0 °F 53.1 °F 93% 30.07 in 1.0 mi Calm Calm - N/A   Mostly Cloudy
8:57 AM 55.4 °F 53.6 °F 94% 30.08 in 0.8 mi Calm Calm - N/A   Overcast
9:13 AM 55.4 °F 53.6 °F 94% 30.08 in 1.0 mi Calm Calm - N/A   Overcast
9:16 AM 55.4 °F 53.6 °F 94% 30.08 in 0.8 mi Calm Calm - N/A   Overcast
9:28 AM 55.4 °F 53.6 °F 94% 30.08 in 1.2 mi Calm Calm - N/A   Mostly Cloudy
9:39 AM 57.2 °F 55.4 °F 94% 30.08 in 1.8 mi Calm Calm - N/A   Scattered Clouds
9:47 AM 59.0 °F 55.0 °F 87% 30.07 in 2.0 mi Calm Calm - N/A   Partly Cloudy
9:57 AM 59.0 °F 55.4 °F 88% 30.07 in 1.8 mi Calm Calm - N/A   Clear
10:08 AM 60.8 °F 55.4 °F 82% 30.07 in 2.0 mi Calm Calm - N/A   Haze
10:47 AM 63.0 °F 55.0 °F 75% 30.06 in 2.5 mi Calm Calm - N/A   Haze
11:16 AM 66.2 °F 55.4 °F 68% 30.05 in 3.0 mi Calm Calm - N/A   Haze
11:47 AM 68.0 °F 54.0 °F 61% 30.02 in 3.0 mi Calm Calm - N/A   Haze
12:21 PM 69.8 °F 53.6 °F 56% 30.00 in 2.5 mi Calm Calm - N/A   Haze
12:38 PM 69.8 °F 55.4 °F 60% 29.99 in 3.0 mi Calm Calm - N/A   Haze
12:47 PM 70.0 °F 55.0 °F 59% 29.98 in 3.0 mi Calm Calm - N/A   Haze
1:47 PM 70.0 °F 53.1 °F 55% 29.96 in 4.0 mi Calm Calm - N/A   Haze
2:47 PM 69.1 °F 52.0 °F 54% 29.95 in 4.0 mi Calm Calm - N/A   Haze
3:47 PM 66.0 °F 52.0 °F 60% 29.95 in 4.0 mi Calm Calm - N/A   Haze
4:47 PM 63.0 °F 52.0 °F 67% 29.94 in 4.0 mi West 4.6 mph - N/A   Haze
5:36 PM 60.8 °F 53.6 °F 77% 29.94 in 3.0 mi Calm Calm - N/A   Haze
5:47 PM 59.0 °F 53.1 °F 81% 29.94 in 4.0 mi Calm Calm - N/A   Haze
6:47 PM 57.9 °F 53.1 °F 84% 29.94 in 3.0 mi Calm Calm - N/A   Haze
7:47 PM 57.0 °F 53.1 °F 87% 29.95 in 2.5 mi Calm Calm - N/A   Clear
8:47 PM 55.9 °F 53.1 °F 90% 29.96 in 2.5 mi Calm Calm - N/A   Clear
9:47 PM 55.0 °F 52.0 °F 89% 29.96 in 2.0 mi Calm Calm - N/A   Clear
9:57 PM 55.4 °F 51.8 °F 88% 29.96 in 2.0 mi Calm Calm - N/A   Partly Cloudy
10:06 PM 55.4 °F 51.8 °F 88% 29.96 in 2.0 mi Calm Calm - N/A   Mostly Cloudy
10:47 PM 55.9 °F 53.1 °F 90% 29.97 in 2.0 mi Calm Calm - N/A   Overcast
11:30 PM 57.2 °F 53.6 °F 88% 29.97 in 3.0 mi Variable 3.5 mph - N/A   Overcast
11:47 PM 57.0 °F 54.0 °F 89% 29.96 in 4.0 mi Variable 3.5 mph - N/A   Overcast